This demonstration page uses our WeatherBlox Daily Observations layout. Learn more.

Hourly Observations for December 28, 2016

Temp ( °F °C ) Dew Point ( °F °C ) Humidity (%) Winds ( mph kmh ) Pressure ( in mb ) Visibility ( mi km ) Precip ( " mm )
12:15 am 00:15 Clear 26 -3.3 20 -6.4 79 79 Calm 30.03 1017 10 16.0934 0 0
12:35 am 00:35 Clear 26 -3.1 21 -6.3 79 79 S 6 9 30 1016 10 16.0934 0 0
12:55 am 00:55 Clear 28 -2.5 22 -5.8 78 78 S 7 11 30 1016 10 16.0934 0 0
1:15 am 01:15 Clear 28 -2 22 -5.5 77 77 SSW 6 9 30 1016 10 16.0934 0 0
1:35 am 01:35 Clear 29 -1.5 23 -5.2 76 76 SSW 6 9 29.97 1015 10 16.0934 0 0
1:55 am 01:55 Clear 29 -1.9 22 -5.4 77 77 SW 3 6 30 1016 10 16.0934 0 0
2:15 am 02:15 Clear 29 -1.9 23 -5.1 79 79 SW 6 9 30 1016 10 16.0934 0 0
2:35 am 02:35 Clear 29 -1.4 23 -5 77 77 Calm 29.97 1015 10 16.0934 0 0
2:55 am 02:55 Clear 26 -3.1 22 -5.6 83 83 Calm 30 1016 10 16.0934 0 0
3:15 am 03:15 Clear 27 -2.6 23 -5.2 83 83 NNW 3 6 30.03 1017 10 16.0934 0 0
3:35 am 03:35 Clear 28 -2.5 23 -5 83 83 Calm 30 1016 10 16.0934 0 0
3:55 am 03:55 Clear 27 -2.8 23 -5.2 84 84 Calm 30 1016 10 16.0934 0 0
4:15 am 04:15 Clear 27 -2.6 23 -4.9 84 84 Calm 30 1016 10 16.0934 0 0
4:35 am 04:35 Clear 25 -3.7 22 -5.5 87 87 Calm 30 1016 10 16.0934 0 0
4:55 am 04:55 Clear 26 -3.5 23 -5.2 88 88 Calm 30 1016 10 16.0934 0 0
5:15 am 05:15 Clear 27 -3 23 -4.9 87 87 Calm 29.97 1015 10 16.0934 0 0
5:35 am 05:35 Clear 28 -2.2 24 -4.2 86 86 Calm 30 1016 10 16.0934 0 0
5:55 am 05:55 Clear 30 -1.2 25 -3.8 83 83 W 3 6 29.97 1015 10 16.0934 0 0
6:15 am 06:15 Partly Cloudy 30 -0.9 26 -3.5 83 83 W 6 9 29.97 1015 10 16.0934 0 0
6:35 am 06:35 Clear 32 0 25 -3.7 76 76 W 3 6 29.97 1015 10 16.0934 0 0
6:55 am 06:55 Partly Cloudy 33 0.4 25 -3.8 74 74 SW 5 7 30 1016 10 16.0934 0 0
7:15 am 07:15 Partly Cloudy 32 0.2 25 -3.9 74 74 WSW 3 6 30 1016 10 16.0934 0 0
7:35 am 07:35 Clear 32 0.2 25 -4 74 74 W 3 6 30.03 1017 10 16.0934 0 0
7:55 am 07:55 Clear 33 0.8 24 -4.2 70 70 W 5 7 30.03 1017 10 16.0934 0 0
8:15 am 08:15 Sunny 35 1.9 24 -4.5 63 63 WNW 3 6 30.03 1017 10 16.0934 0 0
8:35 am 08:35 Sunny 35 1.5 24 -4.3 66 66 W 3 6 30.06 1018 10 16.0934 0 0
8:55 am 08:55 Partly Cloudy 35 1.8 24 -4.3 64 64 WNW 3 6 30.06 1018 10 16.0934 0 0
9:15 am 09:15 Sunny 35 1.9 25 -3.9 66 66 WNW 5 7 30.06 1018 10 16.0934 0 0
9:35 am 09:35 Partly Cloudy 35 1.7 26 -3.6 68 68 NW 3 6 30.06 1018 10 16.0934 0 0
9:55 am 09:55 Mostly Cloudy 36 2.2 26 -3.1 68 68 Calm 30.09 1019 10 16.0934 0 0
10:15 am 10:15 Mostly Cloudy 37 3 26 -3.2 64 64 Calm 30.06 1018 10 16.0934 0 0
10:35 am 10:35 Mostly Cloudy 38 3.5 26 -3.5 61 61 Calm 30.06 1018 10 16.0934 0 0
10:55 am 10:55 Cloudy 39 4 26 -3.4 59 59 Calm 30.09 1019 10 16.0934 0 0
11:15 am 11:15 Mostly Cloudy 41 5 26 -3.5 55 55 NW 5 7 30.06 1018 10 16.0934 0 0
11:35 am 11:35 Partly Cloudy 41 5.2 26 -3.3 55 55 NW 6 9 30.06 1018 10 16.0934 0 0
11:55 am 11:55 Mostly Cloudy 42 5.5 25 -4 51 51 W 7 11 30.09 1019 10 16.0934 0 0
12:15 pm 12:15 Mostly Cloudy 42 5.5 25 -4.1 50 50 W 6 9 30.06 1018 10 16.0934 0 0
12:35 pm 12:35 Mostly Cloudy 43 6 24 -4.2 48 48 WNW 6 9 30.03 1017 10 16.0934 0 0
12:55 pm 12:55 Mostly Cloudy 42 5.8 23 -5 46 46 W 9 15 30.06 1018 10 16.0934 0 0
1:15 pm 13:15 Partly Cloudy 42 5.8 23 -5 46 46 W 8 13 30.06 1018 10 16.0934 0 0
1:35 pm 13:35 Partly Cloudy 43 6.3 23 -5.1 44 44 WNW 9 15 30.03 1017 10 16.0934 0 0
1:55 pm 13:55 Partly Cloudy 44 6.9 23 -5 43 43 W 8 13 30.03 1017 10 16.0934 0 0
2:15 pm 14:15 Partly Cloudy 46 7.8 22 -5.7 38 38 WNW 9 15 30.03 1017 10 16.0934 0 0
2:35 pm 14:35 Partly Cloudy 47 8.3 20 -6.7 34 34 W 10 17 30.03 1017 10 16.0934 0 0
2:55 pm 14:55 Sunny 45 7.3 19 -7.5 34 34 W 7 11 30.03 1017 10 16.0934 0 0
3:15 pm 15:15 Partly Cloudy 46 7.6 19 -7.4 34 34 WNW 10 17 30.03 1017 10 16.0934 0 0
3:35 pm 15:35 Sunny 46 7.6 15 -9.5 29 29 NW 10 17 30.06 1018 10 16.0934 0 0
3:55 pm 15:55 Sunny 46 7.6 12 -11.2 25 25 NW 10 17 30.06 1018 10 16.0934 0 0
4:15 pm 16:15 Sunny 45 7 13 -10.6 28 28 WNW 8 13 30.06 1018 10 16.0934 0 0
4:35 pm 16:35 Sunny 43 6.3 15 -9.5 32 32 WNW 7 11 30.06 1018 10 16.0934 0 0
4:55 pm 16:55 Sunny 40 4.5 16 -8.7 38 38 NW 7 11 30.12 1020 10 16.0934 0 0
5:15 pm 17:15 Sunny 39 3.9 16 -8.7 40 40 WNW 6 9 30.12 1020 10 16.0934 0 0
5:35 pm 17:35 Clear 38 3.3 16 -9.1 40 40 WNW 9 15 30.12 1020 10 16.0934 0 0
5:55 pm 17:55 Clear 36 2.3 15 -9.3 42 42 WNW 8 13 30.18 1022 10 16.0934 0 0
6:15 pm 18:15 Clear 37 2.7 15 -9.7 40 40 WNW 9 15 30.18 1022 10 16.0934 0 0
6:35 pm 18:35 Clear 36 2 16 -9.1 44 44 NW 12 19 30.21 1023 10 16.0934 0 0
6:55 pm 18:55 Clear 36 2.2 15 -9.6 42 42 NW 12 19 30.21 1023 10 16.0934 0 0
7:15 pm 19:15 Clear 37 3 13 -10.6 36 36 NW 16 26 30.21 1023 10 16.0934 0 0
7:35 pm 19:35 Clear 36 2.1 14 -10.2 40 40 NW 13 20 30.21 1023 10 16.0934 0 0
7:55 pm 19:55 Clear 35 1.5 13 -10.4 41 41 NW 14 22 30.21 1023 10 16.0934 0 0
8:15 pm 20:15 Clear 35 1.8 12 -11.3 38 38 NW 13 20 30.24 1024 10 16.0934 0 0
8:35 pm 20:35 Clear 34 1.2 12 -11.1 40 40 NW 13 20 30.24 1024 10 16.0934 0 0
8:55 pm 20:55 Clear 34 1.1 12 -11.3 39 39 WNW 10 17 30.24 1024 10 16.0934 0 0
9:15 pm 21:15 Clear 33 0.8 12 -11 41 41 WNW 10 17 30.3 1026 10 16.0934 0 0
9:35 pm 21:35 Clear 34 1.1 12 -11.2 40 40 WNW 12 19 30.3 1026 10 16.0934 0 0
9:55 pm 21:55 Clear 33 0.8 13 -10.7 42 42 WNW 12 19 30.3 1026 10 16.0934 0 0
10:15 pm 22:15 Clear 33 0.5 13 -10.5 44 44 WNW 15 24 30.33 1027 10 16.0934 0 0
10:35 pm 22:35 Clear 33 0.6 13 -10.8 43 43 WNW 16 26 30.33 1027 10 16.0934 0 0
10:55 pm 22:55 Clear 33 0.7 13 -10.5 43 43 WNW 15 24 30.33 1027 10 16.0934 0 0
11:15 pm 23:15 Clear 33 0.8 13 -10.5 43 43 WNW 14 22 30.33 1027 10 16.0934 0 0
11:35 pm 23:35 Clear 34 1.2 13 -10.6 41 41 WNW 17 28 30.36 1028 10 16.0934 0 0
11:55 pm 23:55 Clear 34 1.3 13 -10.7 41 41 WNW 20 31 30.36 1028 10 16.0934 0 0

Powered by AerisWeather